Regional Weather Roundup
Issued by NWS

Home | Current Version | Previous Version | Graphics & Text | Print | Product List | Glossary On
Versions: 1 2 3 4 5 6 7 8 9 10 11 12 13 14 15 16 17 18 19 20 21 22 23 24 25 26 27 28 29 30 31 32 33 34 35 36 37 38 39 40 41 42 43 44 45 46 47 48 49 50
000
ASUS43 KIND 241409
RWRIN

WEATHER ROUNDUP FOR INDIANA
NATIONAL WEATHER SERVICE INDIANAPOLIS IN
900 AM EST FRI NOV 24 2017

NOTE: "FAIR" INDICATES FEW OR NO CLOUDS BELOW 12,000 FEET WITH NO
SIGNIFICANT WEATHER AND/OR OBSTRUCTIONS TO VISIBILITY.

* - STATION DOES NOT REPORT WEATHER SUCH AS PRECIPITATION OR FOG.

+ - STATION NOT QUALITY CONTROLLED BY THE NATIONAL WEATHER SERVICE.
    USE DATA WITH CAUTION...ESPECIALLY DEWPOINT AND RELATIVE
    HUMIDITY OBSERVATIONS.

INZ001>003-010>013-019-020-241500-
NORTHWEST INDIANA

CITY           SKY/WX    TMP DP  RH WIND       PRES   REMARKS
GARY /AIRPORT/ MOSUNNY   39  27  60 S8        29.79F WCI  34
KNOX *+        MOSUNNY   34  28  80 S12       29.82F WCI  25
LA PORTE +     SUNNY     34  27  76 S6        29.82S WCI  29
MICHIGAN CITY+ SUNNY     37  28  70 S10G16    29.81R WCI  30
MONTICELLO +   SUNNY     35  25  66 S9        29.86F WCI  28
RENSSELAER +   SUNNY     36  27  69 S8        29.83F WCI  29
VALPARAISO     SUNNY     36  28  73 S7        29.81F WCI  30

$$

LMZ046-743>745-241500-
SOUTHERN LAKE MICHIGAN

STATION/POSITION TIME  TEMP    WIND        PRES    WAVE
                       AIR SEA DIR/SP/G            HT
                 (UTC) (F)     (DEG/KT/KT) (MB)    (FT)
BURNS HARBOR     1340   37     190/ 13/ 16 1009.5S
MICHIGAN CITY    1340   36     180/ 10/ 13   N/A

$$

INZ004-005-014>016-021>024-241500-
NORTH CENTRAL INDIANA

CITY           SKY/WX    TMP DP  RH WIND       PRES   REMARKS
ELKHART        SUNNY     36  27  69 S6        29.82F WCI  31
GOSHEN         SUNNY     35  24  64 S12       29.84F WCI  27
LOGANSPORT +   SUNNY     34  28  80 S10       29.87F WCI  26
PERU/GRISSOM   SUNNY     36  27  71 S9        29.87S WCI  29
ROCHESTER +    SUNNY     37  30  75 S7        29.86F WCI  32
SOUTH BEND     SUNNY     37  28  70 S9        29.82F WCI  30
WARSAW +       MOSUNNY   34  27  75 S5        29.85F WCI  30

$$

INZ006>009-017-018-025>027-241500-
NORTHEAST INDIANA

CITY           SKY/WX    TMP DP  RH WIND       PRES   REMARKS
AUBURN +       MOSUNNY   34  27  75 S5        29.88S WCI  30
FORT WAYNE     MOSUNNY   36  27  69 S9        29.89S WCI  29
HUNTINGTON +   SUNNY     35  25  67 S7        29.89S WCI  29
KENDALLVILLE + CLOUDY    36  26  67 S10       29.85F WCI  28

$$

INZ028-029-035-036-043>045-051>053-241500-
WEST CENTRAL INDIANA

CITY           SKY/WX    TMP DP  RH WIND       PRES   REMARKS
CRAWFORDSVL +  CLOUDY    35  27  74 S9        29.89F WCI  27
GREENCASTLE +  SUNNY     36  27  69 S3        29.92R
LAFAYETTE      MOSUNNY   36  28  73 S6        29.87F WCI  31
TERRE HAUTE    SUNNY     35  26  69 SE5       29.92S WCI  31

$$

INZ030>032-037>040-046>048-054>057-064-065-241500-
CENTRAL INDIANA

CITY           SKY/WX    TMP DP  RH WIND       PRES   REMARKS
ANDERSON       SUNNY     37  25  60 S9        29.92  WCI  31
CP ATTERBURY + SUNNY     34  28  80 SE5       29.95S WCI  30
COLUMBUS       SUNNY     34  27  75 S7        29.96S WCI  28
FISHERS *+     SUNNY     36  28  75 S8        29.92  WCI  29
FRANKFORT +    SUNNY     38  30  72 S9        29.89F WCI  31
GREENWOOD *+   SUNNY     38  27  66 S6        29.94R WCI  33
INDIANAPOLIS   MOSUNNY   36  25  64 S7        29.92S WCI  30
-EAGLE CREEK   SUNNY     35  24  64 S6        29.91S WCI  30
KOKOMO +       SUNNY     35  26  69 S10       29.89F WCI  27
MARION +       SUNNY     34  26  72 S10       29.91S HAZE    WCI  26
MT COMFORT *+  SUNNY     34  28  80 S9        29.92S WCI  26
SHELBYVILLE    SUNNY     37  23  56 S12       29.94S WCI  29
ZIONSVILLE +   CLOUDY    34  26  72 S9        29.91S WCI  26

$$

INZ033-034-041-042-049-050-058-059-241500-
EAST CENTRAL INDIANA

CITY           SKY/WX    TMP DP  RH WIND       PRES   REMARKS
MUNCIE         SUNNY     39  24  55 S8        29.92R WCI  33
RICHMOND +     SUNNY     34  28  80 S7        29.95S WCI  28

$$

INZ060-061-067>069-081>083-085>088-241500-
SOUTHWEST INDIANA

CITY           SKY/WX    TMP DP  RH WIND       PRES   REMARKS
EVANSVILLE     CLOUDY    37  29  72 CALM      29.97S
HUNTINGBURG +  SUNNY     38  27  64 S8        29.97F WCI  32
WASHINGTON +   CLOUDY    36  25  64 S9        29.94S WCI  29

$$

INZ062-063-066-070>080-084-089>092-241500-
SOUTH CENTRAL AND SOUTHEAST INDIANA

CITY           SKY/WX    TMP DP  RH WIND       PRES   REMARKS
BEDFORD +      SUNNY     36  25  64 S8        29.94F WCI  29
BLOOMINGTON    SUNNY     36  25  64 SE6       29.93S WCI  31
MADISON *+     SUNNY     36  28  75 CALM      30.00S
NORTH VERNON + SUNNY     36  25  64 S7        29.97S WCI  30
SEYMOUR +      SUNNY     37  30  75 CALM      29.97S

$$





USA.gov is the U.S. government's official web portal to all federal, state and local government web resources and services.